This is the latest recevied weather packets stored in our database for station/object KB1RMA-13. If no packets are shown the sender has not sent any weather packets the latest 1 day(s).
| Time | Temp. | Humidity | Pressure | Rain* | Wind** | Luminosity | Snow |
|---|---|---|---|---|---|---|---|
| 1778024904 | 21.67° C | 51% | 1006 hPa | 0 mm | 6.71 m/s, 219° | 3 W/m² | - |
| 1778024602 | 22.22° C | 51% | 1006.4 hPa | 0 mm | 6.26 m/s, 197° | 4 W/m² | - |
| 1778024299 | 22.22° C | 51% | 1006 hPa | 0 mm | 2.68 m/s, 225° | 7 W/m² | - |
| 1778023997 | 22.22° C | 50% | 1006.2 hPa | 0 mm | 3.58 m/s, 207° | 11 W/m² | - |
| 1778023694 | 22.78° C | 50% | 1006 hPa | 0 mm | 3.58 m/s, 212° | 14 W/m² | - |
| 1778023391 | 22.78° C | 50% | 1006 hPa | 0 mm | 4.02 m/s, 227° | 19 W/m² | - |
| 1778023088 | 22.78° C | 49% | 1005.7 hPa | 0 mm | 10.28 m/s, 195° | 24 W/m² | - |
| 1778022786 | 22.78° C | 50% | 1005.8 hPa | 0 mm | 4.47 m/s, 194° | 29 W/m² | - |
| 1778022484 | 22.78° C | 49% | 1005.7 hPa | 0 mm | 5.36 m/s, 209° | 39 W/m² | - |
| 1778022180 | 23.33° C | 49% | 1005.7 hPa | 0 mm | 3.58 m/s, 188° | 45 W/m² | - |
| 1778021877 | 23.33° C | 49% | 1005.5 hPa | 0 mm | 8.49 m/s, 197° | 60 W/m² | - |
| 1778021574 | 23.33° C | 48% | 1005.6 hPa | 0 mm | 5.36 m/s, 221° | 71 W/m² | - |
| 1778021269 | 23.89° C | 48% | 1005.4 hPa | 0 mm | 5.81 m/s, 202° | 81 W/m² | - |
| 1778020967 | 23.89° C | 47% | 1005.1 hPa | 0 mm | 8.49 m/s, 192° | 93 W/m² | - |
| 1778020665 | 23.89° C | 47% | 1005.2 hPa | 0 mm | 8.94 m/s, 201° | 102 W/m² | - |
| 1778020361 | 23.33° C | 49% | 1005 hPa | 0 mm | 6.71 m/s, 201° | 107 W/m² | - |
| 1778020057 | 23.33° C | 50% | 1004.8 hPa | 0 mm | 6.26 m/s, 178° | 115 W/m² | - |
| 1778019753 | 23.33° C | 49% | 1004.9 hPa | 0 mm | 6.26 m/s, 206° | 108 W/m² | - |
| 1778019450 | 23.33° C | 49% | 1004.9 hPa | 0 mm | 6.71 m/s, 217° | 110 W/m² | - |
| 1778019147 | 23.33° C | 49% | 1004.7 hPa | 0 mm | 5.81 m/s, 203° | 113 W/m² | - |
| 1778018844 | 23.33° C | 50% | 1004.9 hPa | 0 mm | 4.02 m/s, 200° | 113 W/m² | - |
| 1778018542 | 22.78° C | 50% | 1004.8 hPa | 0 mm | 4.47 m/s, 189° | 135 W/m² | - |
| 1778018240 | 22.78° C | 51% | 1004.9 hPa | 0 mm | 6.26 m/s, 184° | 144 W/m² | - |
| 1778017937 | 23.33° C | 50% | 1004.7 hPa | 0 mm | 8.05 m/s, 199° | 127 W/m² | - |
| 1778017634 | 23.33° C | 50% | 1004.8 hPa | 0 mm | 8.05 m/s, 180° | 158 W/m² | - |
* Rain latest hour (hover to see other rain measurements)
** Current wind speed in m/s (hover to see current wind gust speed)